Weather History for KRYV - November, 2011

Change the Weather History Date:

Wednesday, November 9, 2011

  Actual Average Record
Temperature  
Mean Temperature 35 °F -  
Max Temperature 42 °F 47 °F 73 °F (1999)
Min Temperature 28 °F 31 °F 7 °F (1991)
Degree Days  
Heating Degree Days 30    
Moisture  
Dew Point 35 °F    
Average Humidity 88    
Maximum Humidity 93    
Minimum Humidity 86    
Precipitation  
Precipitation 0.00 in - - ()
Sea Level Pressure  
Sea Level Pressure 29.77 in    
Wind  
Wind Speed 12 mph (NNW)    
Max Wind Speed 24 mph    
Max Gust Speed 33 mph    
Visibility 7 miles    
Events Rain , Snow    
Averages and records for this station are not official NWS values.
T = Trace of Precipitation, MM = Missing Value Source: NWS Daily Summary

Daily Weather History Graph

Daily Weather History Graph

Search for Another Location

Airport or City:

Trip Planner

Search our weather history database for the weather conditions in past years. The results will help you decide how hot, cold, wet, or windy it might be!

Date:

Astronomy

Nov. 09, 2011 Rise Set
Actual Time 6:39 AM CST 4:37 PM CST
Civil Twilight 6:09 AM CST 5:07 PM CST
Nautical Twilight 5:35 AM CST 5:41 PM CST
Astronomical Twilight 5:02 AM CST 6:14 PM CST
Moon 3:48 PM CST (11/9) 5:35 AM CST (11/9)
Length of Visible Light 10h 57m
Length of Day
9h 57m
Waxing Gibbous, 99% of the Moon is Illuminated
Nov 9
Waxing Gibbous
Nov 10
Full
Nov 18
Last Quarter
Nov 25
New
Dec 2
First Quarter

Hourly Weather History & Observations

Time (CST) Temp. Windchill Dew Point Humidity Pressure Visibility Wind Dir Wind Speed Gust Speed Precip Events Conditions
12:15 AM 42.8 °F 37.5 °F 39.2 °F 87% 29.94 in 7.0 mi NNE 9.2 mph - N/A   Light Drizzle
12:35 AM 42.8 °F 38.0 °F 39.2 °F 87% 29.92 in 7.0 mi North 8.1 mph - N/A   Drizzle
12:55 AM 42.8 °F 38.0 °F 39.2 °F 87% 29.92 in 7.0 mi NNE 8.1 mph - N/A   Overcast
1:15 AM 42.8 °F 37.0 °F 39.2 °F 87% 29.90 in 7.0 mi NNE 10.4 mph - N/A   Overcast
1:35 AM 42.8 °F 36.6 °F 39.2 °F 87% 29.90 in 10.0 mi NNE 11.5 mph 16.1 mph N/A Rain Light Rain
1:55 AM 42.8 °F 36.6 °F 39.2 °F 87% 29.87 in 10.0 mi NNE 11.5 mph 17.3 mph N/A Rain Light Rain
2:15 AM 42.8 °F 38.0 °F 39.2 °F 87% 29.88 in 10.0 mi NNE 8.1 mph - N/A   Light Drizzle
2:35 AM 42.8 °F 37.5 °F 39.2 °F 87% 29.87 in 7.0 mi NE 9.2 mph - N/A Rain Rain
2:55 AM 42.8 °F 36.6 °F 39.2 °F 87% 29.86 in 7.0 mi NE 11.5 mph 16.1 mph N/A Rain Light Rain
3:15 AM 42.8 °F 36.6 °F 39.2 °F 87% 29.84 in 10.0 mi NE 11.5 mph 17.3 mph N/A Rain Light Rain
3:35 AM 42.8 °F 37.0 °F 39.2 °F 87% 29.83 in 10.0 mi NNE 10.4 mph 17.3 mph N/A Rain Light Rain
3:55 AM 42.8 °F 36.2 °F 39.2 °F 87% 29.81 in 10.0 mi NE 12.7 mph - N/A   Light Drizzle
4:15 AM 42.8 °F 38.0 °F 39.2 °F 87% 29.80 in 10.0 mi North 8.1 mph 18.4 mph N/A Rain Light Rain
4:35 AM 42.8 °F 36.6 °F 39.2 °F 87% 29.79 in 7.0 mi NNE 11.5 mph 17.3 mph N/A Rain Light Rain
4:55 AM 42.8 °F 36.2 °F 39.2 °F 87% 29.78 in 7.0 mi NNE 12.7 mph 17.3 mph N/A Rain Rain
5:15 AM 42.8 °F 36.6 °F 39.2 °F 87% 29.76 in 5.0 mi NE 11.5 mph 18.4 mph N/A   Light Drizzle
5:35 AM 42.8 °F 38.0 °F 39.2 °F 87% 29.75 in 5.0 mi NE 8.1 mph - N/A Rain Rain
5:55 AM 42.8 °F 36.2 °F 39.2 °F 87% 29.73 in 7.0 mi NNE 12.7 mph - N/A Rain Rain
6:15 AM 42.8 °F 37.0 °F 39.2 °F 87% 29.72 in 7.0 mi NNE 10.4 mph - N/A Rain Rain
6:35 AM 42.8 °F 36.6 °F 39.2 °F 87% 29.70 in 5.0 mi NNE 11.5 mph 17.3 mph N/A Rain Rain
6:55 AM 42.8 °F 35.8 °F 39.2 °F 87% 29.67 in 5.0 mi NNE 13.8 mph 19.6 mph N/A Rain Heavy Rain
7:15 AM 42.8 °F 34.3 °F 39.2 °F 87% 29.65 in 3.0 mi NNE 19.6 mph 26.5 mph N/A Rain Heavy Rain
7:35 AM 42.8 °F 36.6 °F 39.2 °F 87% 29.64 in 3.0 mi NNE 11.5 mph 20.7 mph N/A Rain Rain
7:55 AM 42.8 °F 36.2 °F 39.2 °F 87% 29.66 in 3.0 mi North 12.7 mph 17.3 mph N/A Rain Rain
8:15 AM 42.8 °F 36.2 °F 39.2 °F 87% 29.65 in 2.5 mi North 12.7 mph 18.4 mph N/A Rain Rain
8:35 AM 42.8 °F 35.8 °F 39.2 °F 87% 29.64 in 3.0 mi North 13.8 mph 21.9 mph N/A Rain Rain
9:15 AM 39.2 °F 29.3 °F 37.4 °F 93% 29.62 in 1.8 mi North 20.7 mph 28.8 mph N/A Rain Rain
9:35 AM 39.2 °F 30.2 °F 37.4 °F 93% 29.63 in 2.5 mi NNW 17.3 mph 33.4 mph N/A   Overcast
9:55 AM 37.4 °F 27.2 °F 33.8 °F 87% 29.63 in 1.5 mi North 19.6 mph 26.5 mph N/A Snow Light Snow
10:15 AM 35.6 °F 24.8 °F 33.8 °F 93% 29.60 in 5.0 mi North 19.6 mph 29.9 mph N/A Snow Light Snow
10:35 AM 35.6 °F 25.9 °F 33.8 °F 93% 29.60 in 4.0 mi NNW 16.1 mph 32.2 mph N/A   Overcast
10:55 AM 35.6 °F 24.5 °F 33.8 °F 93% 29.59 in 10.0 mi North 20.7 mph 26.5 mph N/A   Overcast
11:15 AM 35.6 °F 25.5 °F 32.0 °F 87% 29.56 in 10.0 mi North 17.3 mph 25.3 mph N/A   Overcast
11:35 AM 35.6 °F 24.8 °F 32.0 °F 87% 29.54 in 5.0 mi North 19.6 mph 32.2 mph N/A   Overcast
11:55 AM 35.6 °F 25.2 °F 32.0 °F 87% 29.58 in 5.0 mi NNW 18.4 mph 23.0 mph N/A   Overcast
12:15 PM 35.6 °F 25.5 °F 32.0 °F 87% 29.58 in 4.0 mi NNW 17.3 mph 27.6 mph N/A   Overcast
12:35 PM 35.6 °F 25.2 °F 32.0 °F 87% 29.60 in 4.0 mi NW 18.4 mph 26.5 mph N/A   Overcast
12:55 PM 33.8 °F 23.2 °F 30.2 °F 87% 29.62 in 1.2 mi NW 17.3 mph 26.5 mph N/A   Overcast
1:15 PM 33.8 °F 22.5 °F 30.2 °F 87% 29.64 in 1.2 mi NW 19.6 mph 26.5 mph N/A Snow Light Snow
1:35 PM 33.8 °F 21.3 °F 30.2 °F 87% 29.66 in 0.8 mi NW 24.2 mph 32.2 mph N/A Snow Light Snow
1:55 PM 28.4 °F 14.7 °F 24.8 °F 86% 29.67 in 0.8 mi NW 21.9 mph 32.2 mph N/A Snow Snow
2:15 PM 33.8 °F 22.5 °F 30.2 °F 87% 29.67 in 0.8 mi NW 19.6 mph 26.5 mph N/A Snow Light Snow
2:35 PM 33.8 °F 22.5 °F 30.2 °F 87% 29.68 in 2.5 mi NW 19.6 mph 29.9 mph N/A Snow Light Snow
3:15 PM 32.0 °F 20.1 °F 28.4 °F 87% 29.72 in 4.0 mi WNW 19.6 mph 32.2 mph N/A   Overcast
3:35 PM 32.0 °F 19.8 °F 30.2 °F 93% 29.74 in 4.0 mi WNW 20.7 mph 28.8 mph N/A   Overcast
3:55 PM 33.8 °F 23.5 °F 30.2 °F 87% 29.76 in 7.0 mi WNW 16.1 mph 29.9 mph N/A   Overcast
4:15 PM 33.8 °F 23.2 °F 30.2 °F 87% 29.78 in 5.0 mi WNW 17.3 mph 27.6 mph N/A   Overcast
4:35 PM 33.8 °F 23.9 °F 30.2 °F 87% 29.81 in 4.0 mi WNW 15.0 mph 24.2 mph N/A   Overcast
4:55 PM 33.8 °F 22.8 °F 30.2 °F 87% 29.82 in 7.0 mi WNW 18.4 mph 25.3 mph N/A   Overcast
5:15 PM 35.6 °F 26.2 °F 32.0 °F 87% 29.84 in 10.0 mi West 15.0 mph 25.3 mph N/A   Overcast
6:15 PM 35.6 °F 27.1 °F 33.8 °F 93% 29.88 in 10.0 mi West 12.7 mph - N/A   Overcast
6:35 PM 35.6 °F 28.6 °F 33.8 °F 93% 29.88 in 10.0 mi West 9.2 mph - N/A   Overcast
6:55 PM 35.6 °F 28.6 °F 33.8 °F 93% 29.88 in 10.0 mi West 9.2 mph - N/A   Overcast
7:15 PM 35.6 °F 29.2 °F 33.8 °F 93% 29.89 in 10.0 mi West 8.1 mph - N/A   Overcast
7:35 PM 35.6 °F 29.9 °F 33.8 °F 93% 29.89 in 10.0 mi WSW 6.9 mph - N/A   Overcast
7:55 PM 35.6 °F 29.9 °F 32.0 °F 87% 29.89 in 10.0 mi West 6.9 mph - N/A   Scattered Clouds
8:15 PM 35.6 °F 29.9 °F 32.0 °F 87% 29.89 in 10.0 mi West 6.9 mph - N/A   Clear
8:35 PM 35.6 °F 29.2 °F 32.0 °F 87% 29.89 in 10.0 mi WSW 8.1 mph - N/A   Clear
8:55 PM 35.6 °F 31.7 °F 32.0 °F 87% 29.90 in 10.0 mi WSW 4.6 mph - N/A   Clear
9:15 PM 33.8 °F 27.7 °F 32.0 °F 93% 29.90 in 10.0 mi WSW 6.9 mph - N/A   Clear
9:35 PM 35.6 °F 30.7 °F 32.0 °F 87% 29.90 in 10.0 mi WSW 5.8 mph - N/A   Clear
9:55 PM 33.8 °F 28.6 °F 30.2 °F 87% 29.90 in 10.0 mi SW 5.8 mph - N/A   Clear
10:15 PM 33.8 °F 28.6 °F 30.2 °F 87% 29.90 in 10.0 mi SW 5.8 mph - N/A   Clear
10:35 PM 32.0 °F 26.4 °F 28.4 °F 87% 29.90 in 10.0 mi SW 5.8 mph - N/A   Clear
10:55 PM 33.8 °F 28.6 °F 30.2 °F 87% 29.90 in 10.0 mi SW 5.8 mph - N/A   Clear
11:15 PM 33.8 °F 28.6 °F 30.2 °F 87% 29.90 in 10.0 mi WSW 5.8 mph - N/A   Clear
11:35 PM 33.8 °F 28.6 °F 30.2 °F 87% 29.90 in 10.0 mi WSW 5.8 mph - N/A   Clear
11:55 PM 33.8 °F 27.7 °F 30.2 °F 87% 29.90 in 10.0 mi WSW 6.9 mph - N/A   Clear